{"data":{"norad_id":53210,"intl_designator":"2022-084X","name":"STARLINK-4427","alt_names":[],"object_type":"PAYLOAD","status":"ACTIVE","operator":null,"country":"US","launch_date":"2022-07-22","launch_site_code":"AFWTR","launch_vehicle":null,"mission":null,"orbit_class":"UNKNOWN","rcs_meters":null,"size_class":null,"mass_kg":null,"dimensions":null,"purposes":["comms"],"wikipedia_slug":null,"has_3d_model":false,"image_url":null,"decayed_at":null,"tle_current":{"epoch":"2026-05-25T02:31:02.883072Z","epoch_age_seconds":59349,"freshness":"FRESH","line1":"1 53210U 22084X   26145.10489448  .00000019  00000+0  53568-5 0  9994","line2":"2 53210  97.4537 205.0362 0001782 140.8949 219.2407 15.05646097211348","mean_motion":15.05646097,"eccentricity":0.0001782,"inclination_deg":97.4537,"raan_deg":205.0362,"arg_perigee_deg":140.8949,"mean_anomaly_deg":219.2407,"bstar":5.3568e-6,"rev_number":21134,"period_min":95.640004837073,"perigee_km":548.28861709605,"apogee_km":550.757635165,"semimajor_km":6927.6601261305,"source":"CELESTRAK","updated_at":"2026-05-25T13:38:17.353947Z"}}}